Torna al catalogo

SL-16 DEB

AttivoSSO
NORAD 25864·DEBRIS·🇷🇺 Russia

Lanciato Jul 17, 1999 da Baikonur Cosmodrome

Loading…

Prossimi Passaggi (prossime 24 ore)

TLE

AggiornatoSource: Space-Track

Epoca: Sep 14, 2026, 11:48 UTC

1 25864U 99039E   26257.49222909  .00000461  00000-0  13629-3 0  9999
2 25864  98.5200 336.7180 0161450 218.3065 153.6850 14.41100800422804

Traccia SL-16 DEB in tempo reale con AllMySat

Download on the App Store